Weather History for South St. Paul, MN

Change the Weather History Date:

Monday, February 13, 2012

  Actual Average (KMSP) Record (KMSP)
Temperature  
Mean Temperature 22 °F 20 °F  
Max Temperature 31 °F 28 °F 51 °F (1890)
Min Temperature 14 °F 12 °F -23 °F (1905)
Degree Days  
Heating Degree Days 42 45  
Month to date heating degree days 607  
Since 1 July heating degree days 5161  
Cooling Degree Days 0 0  
Month to date cooling degree days 0  
Year to date cooling degree days 0  
Moisture  
Dew Point 15 °F    
Average Humidity 68    
Maximum Humidity 95    
Minimum Humidity 48    
Precipitation  
Precipitation 0.02 in 0.02 in 0.60 in (1915)
Month to date precipitation 0.30  
Year to date precipitation 1.20  
Snow  
Snow 0.00 in 0.20 in 5.20 in (1909)
Month to date snowfall 3.4  
Since 1 July snowfall 37.4  
Snow Depth -    
Sea Level Pressure  
Sea Level Pressure 29.90 in    
Wind  
Wind Speed 3 mph (SSE)    
Max Wind Speed 15 mph    
Max Gust Speed 21 mph    
Visibility 8 miles    
Events Snow    
T = Trace of Precipitation, MM = Missing Value Source: NWS Daily Summary

Daily Weather History Graph

Daily Weather History Graph

Search for Another Location

Airport:

Trip Planner

Search our weather history database for the weather conditions in past years. The results will help you decide how hot, cold, wet, or windy it might be!

Date:

Astronomy

Feb. 13, 2012 Rise Set
Actual Time 7:16 AM CST 5:36 PM CST
Civil Twilight 6:46 AM CST 6:07 PM CST
Nautical Twilight 6:11 AM CST 6:41 PM CST
Astronomical Twilight 5:37 AM CST 7:15 PM CST
Moon No Moon Rise 9:55 AM CST (2/13)
Length of Visible Light 11h 21m
Length of Day
10h 20m
Waning Gibbous, 61% of the Moon is Illuminated
Feb 13
Waning Gibbous
Feb 14
Last Quarter
Feb 21
New
Feb 29
First Quarter
Mar 8
Full

Hourly Weather History & Observations

Time (CST) Temp. Windchill Dew Point Humidity Pressure Visibility Wind Dir Wind Speed Gust Speed Precip Events Conditions
12:14 AM 20.3 °F 15.4 °F 3.2 °F 48% 30.08 in 10.0 mi South 3.5 mph - N/A   Clear
12:34 AM 19.6 °F 14.5 °F 3.4 °F 50% 30.08 in 10.0 mi SSE 3.5 mph - N/A   Clear
12:54 AM 19.4 °F 12.8 °F 4.8 °F 53% 30.07 in 10.0 mi SE 4.6 mph - N/A   Clear
1:14 AM 18.9 °F 13.7 °F 5.0 °F 55% 30.07 in 10.0 mi SSE 3.5 mph - N/A   Clear
1:35 AM 18.5 °F 11.7 °F 4.6 °F 55% 30.06 in 10.0 mi SSE 4.6 mph - N/A   Clear
1:54 AM 17.2 °F - 4.6 °F 58% 30.06 in 10.0 mi Calm Calm - N/A   Clear
2:15 AM 16.2 °F - 5.0 °F 62% 30.05 in 10.0 mi Calm Calm - N/A   Clear
2:34 AM 15.8 °F - 5.5 °F 64% 30.04 in 10.0 mi Calm Calm - N/A   Clear
2:54 AM 14.7 °F - 5.9 °F 68% 30.02 in 10.0 mi Calm Calm - N/A   Clear
3:14 AM 15.3 °F - 5.5 °F 65% 30.02 in 10.0 mi Calm Calm - N/A   Clear
3:34 AM 16.7 °F - 6.3 °F 64% 30.01 in 10.0 mi Calm Calm - N/A   Clear
3:54 AM 14.2 °F - 5.0 °F 67% 30.00 in 10.0 mi Calm Calm - N/A   Scattered Clouds
4:14 AM 15.6 °F - 7.9 °F 72% 29.99 in 10.0 mi Calm Calm - N/A   Mostly Cloudy
4:34 AM 16.5 °F - 8.6 °F 71% 29.99 in 10.0 mi Calm Calm - N/A   Overcast
4:54 AM 17.2 °F - 9.3 °F 71% 29.98 in 10.0 mi Calm Calm - N/A   Overcast
5:14 AM 18.3 °F - 9.5 °F 68% 29.97 in 10.0 mi Calm Calm - N/A   Overcast
5:34 AM 19.9 °F - 7.9 °F 60% 29.97 in 10.0 mi Calm Calm - N/A   Overcast
5:55 AM 20.7 °F - 8.6 °F 60% 29.96 in 10.0 mi Calm Calm - N/A   Overcast
6:14 AM 21.0 °F 16.2 °F 8.6 °F 59% 29.95 in 10.0 mi SSE 3.5 mph - N/A   Overcast
6:34 AM 21.7 °F 17.0 °F 8.6 °F 57% 29.95 in 10.0 mi SSE 3.5 mph - N/A   Overcast
6:54 AM 21.9 °F 17.2 °F 9.3 °F 58% 29.94 in 10.0 mi SSE 3.5 mph - N/A   Overcast
7:15 AM 22.1 °F 17.4 °F 9.7 °F 59% 29.93 in 10.0 mi SSE 3.5 mph - N/A   Overcast
7:34 AM 22.5 °F - 10.2 °F 59% 29.93 in 10.0 mi Calm Calm - N/A   Overcast
7:55 AM 22.8 °F - 10.6 °F 59% 29.93 in 10.0 mi Calm Calm - N/A   Overcast
8:14 AM 23.4 °F - 11.1 °F 60% 29.93 in 10.0 mi Calm Calm - N/A   Overcast
8:34 AM 23.9 °F 19.5 °F 11.7 °F 60% 29.92 in 10.0 mi SSE 3.5 mph - N/A   Overcast
8:54 AM 24.6 °F 18.8 °F 11.5 °F 57% 29.92 in 10.0 mi SSE 4.6 mph - N/A   Overcast
9:14 AM 25.7 °F 21.5 °F 12.2 °F 57% 29.92 in 10.0 mi SSE 3.5 mph - N/A   Overcast
9:34 AM 26.6 °F 20.0 °F 12.2 °F 55% 29.90 in 10.0 mi SSE 5.8 mph - N/A   Overcast
9:54 AM 27.7 °F 21.3 °F 12.4 °F 53% 29.90 in 10.0 mi SSE 5.8 mph - N/A   Overcast
10:14 AM 28.4 °F 24.6 °F 12.7 °F 52% 29.89 in 10.0 mi SSE 3.5 mph - N/A   Overcast
10:34 AM 30.0 °F 21.7 °F 13.5 °F 50% 29.88 in 10.0 mi South 9.2 mph - N/A   Overcast
10:54 AM 30.9 °F 22.2 °F 14.0 °F 50% 29.88 in 10.0 mi South 10.4 mph 17.3 mph N/A   Scattered Clouds
11:14 AM 31.1 °F 20.5 °F 16.9 °F 56% 29.88 in 10.0 mi SSW 15.0 mph 20.7 mph N/A   Clear
11:34 AM 31.3 °F 22.1 °F 17.6 °F 57% 29.87 in 10.0 mi SSW 11.5 mph 17.3 mph N/A   Scattered Clouds
11:55 AM 31.5 °F 24.2 °F 19.4 °F 61% 29.86 in 10.0 mi South 8.1 mph - N/A   Mostly Cloudy
12:14 PM 30.9 °F 21.2 °F 21.6 °F 68% 29.85 in 7.0 mi SW 12.7 mph 17.3 mph N/A   Mostly Cloudy
12:34 PM 30.7 °F 22.0 °F 23.2 °F 74% 29.84 in 5.0 mi SSW 10.4 mph - N/A   Haze
12:55 PM 30.4 °F 22.2 °F 24.1 °F 77% 29.83 in 4.0 mi South 9.2 mph - N/A   Scattered Clouds
1:14 PM 30.6 °F 24.7 °F 24.8 °F 79% 29.82 in 5.0 mi South 5.8 mph - N/A   Haze
1:34 PM 29.8 °F 24.9 °F 25.0 °F 82% 29.82 in 5.0 mi SSE 4.6 mph - N/A   Haze
1:54 PM 30.6 °F 27.1 °F 25.3 °F 81% 29.81 in 10.0 mi SSE 3.5 mph - N/A   Overcast
2:14 PM 30.9 °F 26.2 °F 25.0 °F 79% 29.80 in 10.0 mi South 4.6 mph - N/A   Mostly Cloudy
2:34 PM 31.3 °F 23.3 °F 23.9 °F 74% 29.79 in 10.0 mi SSW 9.2 mph - N/A   Overcast
2:54 PM 31.3 °F 23.3 °F 23.9 °F 74% 29.79 in 10.0 mi SSW 9.2 mph - N/A   Overcast
3:14 PM 31.3 °F 26.6 °F 23.9 °F 74% 29.78 in 10.0 mi South 4.6 mph - N/A   Overcast
3:34 PM 30.9 °F 26.2 °F 24.8 °F 78% 29.78 in 4.0 mi SSE 4.6 mph - N/A Snow Light Snow
3:54 PM 30.2 °F 24.3 °F 25.7 °F 83% 29.78 in 1.8 mi SSE 5.8 mph - N/A Snow Light Snow
4:15 PM 29.8 °F 24.9 °F 26.4 °F 87% 29.78 in 2.0 mi South 4.6 mph - N/A Snow Light Snow
4:34 PM 29.8 °F 26.3 °F 27.0 °F 89% 29.77 in 1.8 mi SSE 3.5 mph - N/A   Overcast
4:54 PM 29.7 °F - 27.1 °F 90% 29.77 in 1.2 mi Calm Calm - N/A   Overcast
5:14 PM 29.7 °F - 27.5 °F 92% 29.77 in 1.2 mi Calm Calm - N/A   Overcast
5:35 PM 29.3 °F 25.6 °F 27.5 °F 93% 29.77 in 1.0 mi SE 3.5 mph - 0.01 in   Overcast
5:54 PM 29.3 °F 24.3 °F 27.9 °F 94% 29.76 in 1.8 mi SSE 4.6 mph - 0.01 in Snow Light Snow
5:59 PM 29.5 °F 25.9 °F 27.9 °F 94% 29.76 in 1.8 mi SSE 3.5 mph - 0.02 in Snow Light Snow
6:15 PM 29.5 °F 25.9 °F 28.2 °F 95% 29.76 in 2.5 mi SSE 3.5 mph - N/A   Overcast
6:34 PM 29.3 °F - 28.0 °F 95% 29.76 in 3.0 mi Calm Calm - N/A   Overcast
6:54 PM 29.3 °F 25.6 °F 28.0 °F 95% 29.76 in 2.5 mi SSE 3.5 mph - N/A Snow Light Snow
7:14 PM 29.3 °F - 28.0 °F 95% 29.75 in 2.5 mi Calm Calm - N/A   Overcast
7:34 PM 29.3 °F - 28.0 °F 95% 29.75 in 4.0 mi Calm Calm - 0.01 in   Overcast
7:54 PM 29.3 °F 24.3 °F 28.0 °F 95% 29.75 in 7.0 mi SSE 4.6 mph - 0.01 in   Overcast
7:59 PM 29.3 °F 24.3 °F 28.0 °F 95% 29.75 in 7.0 mi SSE 4.6 mph - 0.01 in   Overcast
8:15 PM 29.1 °F 24.1 °F 27.7 °F 94% 29.74 in 10.0 mi SSE 4.6 mph - N/A   Overcast
8:34 PM 28.9 °F 25.2 °F 27.5 °F 94% 29.74 in 10.0 mi SSE 3.5 mph - N/A   Overcast
8:54 PM 28.9 °F 25.2 °F 27.5 °F 94% 29.74 in 7.0 mi SSE 3.5 mph - N/A   Mostly Cloudy
9:14 PM 28.8 °F 25.0 °F 27.3 °F 94% 29.74 in 4.0 mi SSE 3.5 mph - N/A   Scattered Clouds
9:34 PM 28.4 °F 24.6 °F 27.1 °F 95% 29.74 in 5.0 mi SSE 3.5 mph - N/A   Scattered Clouds
9:54 PM 28.4 °F 24.6 °F 27.0 °F 94% 29.74 in 5.0 mi SSE 3.5 mph - N/A   Clear
10:14 PM 27.9 °F 24.0 °F 26.6 °F 95% 29.74 in 5.0 mi SSE 3.5 mph - N/A   Clear
10:34 PM 27.3 °F - 26.1 °F 95% 29.73 in 4.0 mi Calm Calm - N/A   Clear
10:54 PM 25.2 °F - 23.9 °F 95% 29.73 in 1.0 mi Calm Calm - N/A   Mist
11:14 PM 23.2 °F - 21.9 °F 95% 29.73 in 0.5 mi Calm Calm - N/A Fog Light Freezing Fog
11:34 PM 23.9 °F - 22.8 °F 96% 29.73 in 0.8 mi Calm Calm - N/A   Overcast
11:54 PM 24.1 °F - 22.8 °F 95% 29.73 in 1.2 mi Calm Calm - N/A   Overcast